This demonstration page uses our WeatherBlox Daily Observations layout. Learn more.

Left ArrowRight Arrow

31.31129, -92.44514

Hourly Observations for December 11, 2020

Temp ( °F °C ) Dew Point ( °F °C ) Humidity (%) Winds ( mph kmh ) Pressure ( in mb ) Visibility ( mi km ) Precip ( " mm )
12:53 am 00:53 Clear with Mist and Fog 51 10.6 49 9.4 92 92 SE 8 13 30.02 1017 10 16 0.00 0.00
1:53 am 01:53 Clear with Mist and Fog 51 10.6 49 9.4 92 92 SE 8 13 30.02 1017 10 16 0.00 0.00
2:53 am 02:53 Mostly Clear with Mist and Fog 52 11.1 50 10 93 93 ESE 8 13 30.01 1016 10 16 0.00 0.00
3:53 am 03:53 Mostly Clear with Mist and Fog 48 8.9 47 8.3 96 96 SE 7 11 30.01 1016 10 16 0.00 0.00
4:53 am 04:53 Mostly Clear with Mist and Fog 48 8.9 47 8.3 96 96 ESE 7 11 30.00 1016 9 14 0.00 0.00
5:53 am 05:53 Clear with Mist and Fog 48 8.9 47 8.3 96 96 SE 7 11 30.00 1016 8 13 0.00 0.00
6:53 am 06:53 Cloudy with Mist and Fog 50 10 49 9.4 96 96 E 3 6 30.01 1016 10 16 0.00 0.00
7:53 am 07:53 Cloudy with Mist and Fog 53 11.7 51 10.6 93 93 Calm 30.04 1017 8 13 0.00 0.00
8:53 am 08:53 Mostly Cloudy with Mist and Fog 56 13.3 52 11.1 87 87 SE 7 11 30.06 1018 10 16 0.00 0.00
9:53 am 09:53 Mostly Cloudy with Mist and Fog 61 16.1 54 12.2 78 78 S 12 19 30.04 1017 10 16 0.00 0.00
10:53 am 10:53 Mostly Cloudy with Mist and Fog 69 20.6 55 12.8 61 61 SSE 12 19 30.02 1017 10 16 0.00 0.00
11:53 am 11:53 Partly Cloudy with Mist and Fog 69 20.6 55 12.8 61 61 S 14 22 29.98 1015 10 16 0.00 0.00
12:53 pm 12:53 Partly Cloudy with Mist and Fog 70 21.1 56 13.3 61 61 S 15 24 29.95 1014 10 16 0.00 0.00
1:53 pm 13:53 Partly Cloudy with Mist and Fog 70 21.1 55 12.8 59 59 S 13 20 29.92 1013 10 16 0.00 0.00
2:53 pm 14:53 Mostly Cloudy with Mist and Fog 68 20 55 12.8 63 63 SSE 12 19 29.89 1012 10 16 0.00 0.00
3:53 pm 15:53 Mostly Cloudy with Mist and Fog 68 20 55 12.8 63 63 S 10 17 29.90 1013 10 16 0.00 0.00
4:53 pm 16:53 Sunny with Mist and Fog 67 19.4 55 12.8 66 66 SSE 12 19 29.88 1012 10 16 0.00 0.00
5:53 pm 17:53 Clear with Mist and Fog 66 18.9 55 12.8 68 68 SE 16 26 29.85 1011 10 16 0.00 0.00
6:53 pm 18:53 Partly Cloudy with Mist and Fog 66 18.9 55 12.8 68 68 SSE 15 24 29.88 1012 10 16 0.00 0.00
7:53 pm 19:53 Mostly Cloudy with Mist and Fog 65 18.3 55 12.8 70 70 SSE 10 17 29.87 1012 10 16 0.00 0.00
8:53 pm 20:53 Cloudy with Rain 62 16.7 57 13.9 84 84 SSE 8 13 29.88 1012 6 10 0.02 0.51
9:53 pm 21:53 Cloudy with Light Rain 61 16.1 59 15 93 93 N 10 17 29.90 1013 10 16 0.05 1.27
10:27 pm 22:27 Cloudy with Heavy Rain 60 15.6 59 15 96 96 NW 12 19 29.92 1013 3 5 0.08 2.03
10:30 pm 22:30 Cloudy with Heavy Rain 60 15.6 59 15 96 96 NNW 8 13 29.91 1013 3 4 0.10 2.54
10:42 pm 22:42 Cloudy with Rain 60 15.6 59 15 96 96 N 8 13 29.91 1013 4 6 0.13 3.30
10:53 pm 22:53 Cloudy with Heavy Rain 60 15.6 59 15 96 96 NE 7 11 29.90 1013 2 3 0.22 5.59
11:13 pm 23:13 Cloudy with Heavy Rain 60 15.6 59 15 96 96 N 8 13 29.89 1012 2 3 0.18 4.57
11:16 pm 23:16 Cloudy with Rain 60 15.6 59 15 96 96 N 12 19 29.89 1012 3 5 0.19 4.83
11:23 pm 23:23 Cloudy with Heavy Rain 60 15.6 59 15 96 96 N 8 13 29.90 1013 2 3 0.28 7.11
11:31 pm 23:31 Cloudy with Heavy Rain 60 15.6 60 15.6 100 100 NE 6 9 29.90 1013 2 3 0.32 8.13
11:50 pm 23:50 Cloudy with Rain 61 16 59 15 94 94 NE 9 15 29.89 1012 3 5 0.39 9.91
11:53 pm 23:53 Cloudy with Rain 60 15.6 59 15 96 96 NE 8 13 29.90 1012 3 5 0.40 10.16

Powered by AerisWeather